TimeCST,TemperatureF,Dew PointF,Humidity,Sea Level PressureIn,VisibilityMPH,Wind Direction,Wind SpeedMPH,Gust SpeedMPH,PrecipitationIn,Events,Conditions,WindDirDegrees,DateUTC
12:12 AM,22.5,18.7,85,29.90,4.0,NNW,9.2,-,N/A,,Scattered Clouds,330,2012-12-10 06:12:00
12:32 AM,21.7,17.8,85,29.89,5.0,North,11.5,18.4,N/A,,Scattered Clouds,350,2012-12-10 06:32:00
12:52 AM,21.2,16.9,83,29.90,5.0,NNW,12.7,-,N/A,,Mostly Cloudy,340,2012-12-10 06:52:00
1:12 AM,20.7,16.0,82,29.90,5.0,NNW,9.2,17.3,N/A,,Overcast,340,2012-12-10 07:12:00
1:32 AM,19.8,15.1,82,29.90,7.0,NNW,19.6,-,N/A,Snow,Light Snow,330,2012-12-10 07:32:00
1:52 AM,19.0,14.0,81,29.91,7.0,North,11.5,18.4,N/A,Snow,Light Snow,350,2012-12-10 07:52:00
2:12 AM,18.1,13.1,81,29.92,10.0,NNW,9.2,18.4,N/A,,Overcast,340,2012-12-10 08:12:00
2:52 AM,18.3,13.6,82,29.93,7.0,NW,9.2,-,N/A,Snow,Light Snow,320,2012-12-10 08:52:00
3:12 AM,18.3,13.6,82,29.92,7.0,NNW,10.4,-,N/A,Snow,Light Snow,330,2012-12-10 09:12:00
3:32 AM,18.1,13.5,82,29.92,10.0,NNW,9.2,16.1,N/A,Snow,Light Snow,330,2012-12-10 09:32:00
3:52 AM,17.8,13.1,82,29.91,10.0,NNW,9.2,-,N/A,Snow,Light Snow,330,2012-12-10 09:52:00
4:12 AM,17.4,12.7,82,29.91,7.0,NW,8.1,-,N/A,Snow,Light Snow,320,2012-12-10 10:12:00
4:32 AM,17.2,12.7,83,29.91,5.0,NNW,9.2,-,N/A,Snow,Light Snow,330,2012-12-10 10:32:00
4:52 AM,16.7,11.8,81,29.91,10.0,NW,8.1,-,N/A,,Overcast,320,2012-12-10 10:52:00
5:12 AM,15.4,10.8,82,29.92,10.0,NNW,8.1,-,N/A,,Overcast,340,2012-12-10 11:12:00
5:32 AM,14.9,9.9,80,29.92,10.0,NNW,11.5,-,N/A,,Mostly Cloudy,330,2012-12-10 11:32:00
5:52 AM,14.4,9.5,81,29.92,10.0,NW,10.4,-,N/A,,Scattered Clouds,320,2012-12-10 11:52:00
6:12 AM,14.0,9.1,81,29.93,10.0,NW,10.4,-,N/A,,Scattered Clouds,320,2012-12-10 12:12:00
6:32 AM,13.8,8.6,80,29.93,10.0,NNW,8.1,-,N/A,,Mostly Cloudy,330,2012-12-10 12:32:00
6:52 AM,14.5,9.5,80,29.93,10.0,NNW,8.1,-,N/A,,Overcast,330,2012-12-10 12:52:00
7:12 AM,14.4,9.5,81,29.93,10.0,WNW,6.9,-,N/A,,Overcast,300,2012-12-10 13:12:00
7:32 AM,14.5,9.9,82,29.94,10.0,WNW,6.9,-,N/A,,Overcast,300,2012-12-10 13:32:00
7:52 AM,14.0,9.1,81,29.93,10.0,NW,9.2,-,N/A,,Overcast,320,2012-12-10 13:52:00
8:12 AM,13.8,9.1,82,29.93,7.0,NW,6.9,-,N/A,Snow,Light Snow,310,2012-12-10 14:12:00
8:32 AM,14.0,9.0,80,29.94,10.0,NW,6.9,-,N/A,,Overcast,320,2012-12-10 14:32:00
8:52 AM,14.0,8.6,79,29.94,10.0,WNW,8.1,-,N/A,,Overcast,300,2012-12-10 14:52:00
9:12 AM,14.4,9.0,79,29.94,10.0,NW,6.9,-,N/A,,Overcast,310,2012-12-10 15:12:00
9:32 AM,14.4,8.8,79,29.95,10.0,WNW,8.1,-,N/A,,Overcast,300,2012-12-10 15:32:00
9:52 AM,14.5,9.1,79,29.95,7.0,NW,5.8,-,N/A,,Overcast,320,2012-12-10 15:52:00
10:12 AM,14.7,9.3,79,29.95,10.0,NW,5.8,-,N/A,,Overcast,310,2012-12-10 16:12:00
10:32 AM,14.9,9.1,78,29.95,10.0,WNW,4.6,-,N/A,,Overcast,300,2012-12-10 16:32:00
10:52 AM,15.1,9.3,78,29.95,10.0,WNW,6.9,-,N/A,,Overcast,300,2012-12-10 16:52:00
11:12 AM,15.4,9.5,77,29.94,10.0,WNW,4.6,-,N/A,,Overcast,290,2012-12-10 17:12:00
11:32 AM,15.6,10.0,79,29.94,10.0,West,5.8,-,N/A,,Overcast,280,2012-12-10 17:32:00
11:52 AM,15.4,9.5,77,29.93,10.0,West,3.5,-,N/A,,Mostly Cloudy,260,2012-12-10 17:52:00
12:12 PM,15.8,9.7,77,29.93,10.0,WSW,5.8,-,N/A,,Scattered Clouds,250,2012-12-10 18:12:00
12:32 PM,15.8,9.3,76,29.92,10.0,West,5.8,-,N/A,,Clear,270,2012-12-10 18:32:00
12:52 PM,16.7,10.0,75,29.91,10.0,West,5.8,-,N/A,,Clear,260,2012-12-10 18:52:00
1:12 PM,17.4,10.4,74,29.91,10.0,WSW,4.6,-,N/A,,Clear,250,2012-12-10 19:12:00
1:32 PM,17.8,10.8,74,29.90,10.0,Calm,Calm,-,N/A,,Clear,0,2012-12-10 19:32:00
1:52 PM,18.3,11.3,74,29.90,10.0,West,5.8,-,N/A,,Clear,260,2012-12-10 19:52:00
2:12 PM,18.1,11.5,75,29.90,10.0,West,6.9,-,N/A,,Clear,260,2012-12-10 20:12:00
2:32 PM,17.6,10.9,75,29.89,10.0,WSW,4.6,-,N/A,,Clear,240,2012-12-10 20:32:00
2:52 PM,17.2,10.8,76,29.89,10.0,WSW,6.9,-,N/A,,Clear,250,2012-12-10 20:52:00
3:12 PM,16.7,10.2,76,29.89,10.0,WSW,4.6,-,N/A,,Clear,250,2012-12-10 21:12:00
3:32 PM,15.6,9.1,76,29.89,10.0,WSW,6.9,-,N/A,,Clear,250,2012-12-10 21:32:00
3:52 PM,14.9,8.6,76,29.90,10.0,West,8.1,-,N/A,,Clear,260,2012-12-10 21:52:00
4:12 PM,14.0,7.7,76,29.90,10.0,West,5.8,-,N/A,,Clear,260,2012-12-10 22:12:00
4:32 PM,12.7,6.8,77,29.90,10.0,West,6.9,-,N/A,,Clear,260,2012-12-10 22:32:00
4:52 PM,11.3,5.5,78,29.91,10.0,WSW,3.5,-,N/A,,Clear,240,2012-12-10 22:52:00
5:12 PM,10.4,5.0,79,29.91,10.0,WSW,3.5,-,N/A,,Clear,250,2012-12-10 23:12:00
5:32 PM,9.3,4.1,79,29.92,10.0,Calm,Calm,-,N/A,,Clear,0,2012-12-10 23:32:00
5:52 PM,8.1,3.2,81,29.92,10.0,WSW,3.5,-,N/A,,Clear,250,2012-12-10 23:52:00
6:12 PM,7.7,3.0,81,29.92,10.0,SW,3.5,-,N/A,,Clear,220,2012-12-11 00:12:00
6:32 PM,6.8,2.3,82,29.92,10.0,Calm,Calm,-,N/A,,Clear,0,2012-12-11 00:32:00
6:52 PM,6.8,2.7,83,29.91,10.0,Calm,Calm,-,N/A,,Clear,0,2012-12-11 00:52:00
7:12 PM,6.1,2.3,84,29.91,10.0,Calm,Calm,-,N/A,,Clear,0,2012-12-11 01:12:00
7:32 PM,5.4,1.4,84,29.91,10.0,Calm,Calm,-,N/A,,Clear,0,2012-12-11 01:32:00
7:52 PM,4.1,0.3,84,29.91,10.0,SSW,3.5,-,N/A,,Clear,210,2012-12-11 01:52:00
8:12 PM,4.1,0.3,84,29.91,10.0,South,3.5,-,N/A,,Clear,180,2012-12-11 02:12:00
8:52 PM,3.7,-0.9,81,29.90,10.0,South,4.6,-,N/A,,Clear,190,2012-12-11 02:52:00
9:12 PM,4.1,-0.4,82,29.90,10.0,South,3.5,-,N/A,,Clear,190,2012-12-11 03:12:00
9:32 PM,3.7,-0.4,83,29.91,10.0,SW,5.8,-,N/A,,Clear,220,2012-12-11 03:32:00
9:52 PM,3.9,-0.4,82,29.90,10.0,South,4.6,-,N/A,,Clear,180,2012-12-11 03:52:00
10:12 PM,3.7,-0.4,83,29.90,10.0,SSE,3.5,-,N/A,,Clear,160,2012-12-11 04:12:00
10:32 PM,3.4,-0.8,83,29.89,10.0,Calm,Calm,-,N/A,,Clear,0,2012-12-11 04:32:00
10:52 PM,3.2,-0.4,85,29.88,10.0,Calm,Calm,-,N/A,,Scattered Clouds,0,2012-12-11 04:52:00
11:12 PM,3.7,0.1,85,29.88,10.0,Calm,Calm,-,N/A,,Mostly Cloudy,0,2012-12-11 05:12:00
11:32 PM,3.9,0.5,86,29.87,10.0,SE,3.5,-,N/A,,Scattered Clouds,140,2012-12-11 05:32:00
11:52 PM,4.5,1.4,87,29.86,10.0,SSE,3.5,-,N/A,,Clear,150,2012-12-11 05:52:00